Time,TemperatureF,DewpointF,PressureIn,WindDirection,WindDirectionDegrees,WindSpeedMPH,WindSpeedGustMPH,Humidity,HourlyPrecipIn,Conditions,Clouds,dailyrainin,SolarRadiationWatts/m^2,SoftwareType,DateUTC
2013-10-10 00:01:00,30.2,25.7,29.80,NW,309,0.0,0.0,83,0.00,,,0.00,0,Wunderground v.1.15,2013-10-10 06:01:00,
2013-10-10 00:07:00,30.1,25.6,29.80,NW,309,0.0,0.0,83,0.00,,,0.00,0,Wunderground v.1.15,2013-10-10 06:07:00,
2013-10-10 00:13:00,30.2,25.9,29.80,NW,309,0.0,0.0,84,0.00,,,0.00,0,Wunderground v.1.15,2013-10-10 06:13:00,
2013-10-10 00:19:00,30.3,26.0,29.80,NW,309,0.0,0.0,84,0.00,,,0.00,0,Wunderground v.1.15,2013-10-10 06:19:00,
2013-10-10 00:24:00,30.4,26.4,29.80,NW,309,0.0,0.0,85,0.00,,,0.00,0,Wunderground v.1.15,2013-10-10 06:24:00,
2013-10-10 00:29:00,30.5,26.5,29.80,NW,309,0.0,0.0,85,0.00,,,0.00,0,Wunderground v.1.15,2013-10-10 06:29:00,
2013-10-10 00:35:00,30.7,27.0,29.80,NW,309,0.0,0.0,86,0.00,,,0.00,0,Wunderground v.1.15,2013-10-10 06:35:00,
2013-10-10 00:41:00,30.6,26.6,29.80,NW,309,0.0,0.0,85,0.00,,,0.00,0,Wunderground v.1.15,2013-10-10 06:41:00,
2013-10-10 00:47:00,30.5,26.5,29.80,NW,309,0.0,0.0,85,0.00,,,0.00,0,Wunderground v.1.15,2013-10-10 06:47:00,
2013-10-10 00:53:00,30.3,26.3,29.80,NW,309,0.0,0.0,85,0.00,,,0.00,0,Wunderground v.1.15,2013-10-10 06:53:00,
2013-10-10 00:59:00,29.7,25.7,29.80,NW,309,0.0,0.0,85,0.00,,,0.00,0,Wunderground v.1.15,2013-10-10 06:59:00,
2013-10-10 01:04:00,29.5,25.5,29.79,NW,309,0.0,0.0,85,0.00,,,0.00,0,Wunderground v.1.15,2013-10-10 07:04:00,
2013-10-10 01:10:00,29.4,25.4,29.79,NW,309,0.0,0.0,85,0.00,,,0.00,0,Wunderground v.1.15,2013-10-10 07:10:00,
2013-10-10 01:15:00,29.0,25.1,29.79,NW,309,0.0,0.0,85,0.00,,,0.00,0,Wunderground v.1.15,2013-10-10 07:15:00,
2013-10-10 01:21:00,28.7,24.8,29.79,NW,309,0.0,0.0,85,0.00,,,0.00,0,Wunderground v.1.15,2013-10-10 07:21:00,
2013-10-10 01:26:00,28.6,24.7,29.79,NW,309,0.0,0.0,85,0.00,,,0.00,0,Wunderground v.1.15,2013-10-10 07:26:00,
2013-10-10 01:32:00,28.5,24.6,29.79,NW,309,0.0,0.0,85,0.00,,,0.00,0,Wunderground v.1.15,2013-10-10 07:32:00,
2013-10-10 01:38:00,28.4,24.5,29.79,NW,309,0.0,0.0,85,0.00,,,0.00,0,Wunderground v.1.15,2013-10-10 07:38:00,
2013-10-10 01:43:00,28.4,24.5,29.79,NW,309,0.0,0.0,85,0.00,,,0.00,0,Wunderground v.1.15,2013-10-10 07:43:00,
2013-10-10 01:48:00,28.3,24.6,29.79,NW,309,0.0,0.0,86,0.00,,,0.00,0,Wunderground v.1.15,2013-10-10 07:48:00,
2013-10-10 01:53:00,28.3,24.6,29.79,NW,309,0.0,0.0,86,0.00,,,0.00,0,Wunderground v.1.15,2013-10-10 07:53:00,
2013-10-10 01:59:00,28.1,24.5,29.79,NW,309,0.0,0.0,86,0.00,,,0.00,0,Wunderground v.1.15,2013-10-10 07:59:00,
2013-10-10 02:04:00,28.1,24.5,29.79,NW,309,0.0,0.0,86,0.00,,,0.00,0,Wunderground v.1.15,2013-10-10 08:04:00,
2013-10-10 02:09:00,28.0,24.4,29.79,NW,309,0.0,0.0,86,0.00,,,0.00,0,Wunderground v.1.15,2013-10-10 08:09:00,
2013-10-10 02:14:00,27.9,24.3,29.79,NW,309,0.0,0.0,86,0.00,,,0.00,0,Wunderground v.1.15,2013-10-10 08:14:00,
2013-10-10 02:19:00,27.5,23.9,29.79,NW,309,0.0,0.0,86,0.00,,,0.00,0,Wunderground v.1.15,2013-10-10 08:19:00,
2013-10-10 02:24:00,27.3,25.3,29.79,NW,309,0.0,0.0,92,0.00,,,0.00,0,Wunderground v.1.15,2013-10-10 08:24:00,
2013-10-10 02:29:00,27.3,23.7,29.79,NW,309,0.0,0.0,86,0.00,,,0.00,0,Wunderground v.1.15,2013-10-10 08:29:00,
2013-10-10 02:34:00,27.4,23.8,29.79,NW,309,0.0,0.0,86,0.00,,,0.00,0,Wunderground v.1.15,2013-10-10 08:34:00,
2013-10-10 02:39:00,27.4,24.0,29.79,NW,309,0.0,0.0,87,0.00,,,0.00,0,Wunderground v.1.15,2013-10-10 08:39:00,
2013-10-10 02:44:00,27.4,24.0,29.79,NW,309,0.0,0.0,87,0.00,,,0.00,0,Wunderground v.1.15,2013-10-10 08:44:00,
2013-10-10 02:49:00,27.3,23.9,29.79,NW,309,0.0,0.0,87,0.00,,,0.00,0,Wunderground v.1.15,2013-10-10 08:49:00,
2013-10-10 02:54:00,27.2,23.8,29.79,NW,309,0.0,0.0,87,0.00,,,0.00,0,Wunderground v.1.15,2013-10-10 08:54:00,
2013-10-10 02:59:00,27.2,23.8,29.79,NW,309,0.0,0.0,87,0.00,,,0.00,0,Wunderground v.1.15,2013-10-10 08:59:00,
2013-10-10 03:04:00,27.1,23.7,29.78,NW,309,0.0,0.0,87,0.00,,,0.00,0,Wunderground v.1.15,2013-10-10 09:04:00,
2013-10-10 03:09:00,27.0,23.6,29.78,NW,309,0.0,0.0,87,0.00,,,0.00,0,Wunderground v.1.15,2013-10-10 09:09:00,
2013-10-10 03:14:00,26.9,23.5,29.78,NW,309,0.0,0.0,87,0.00,,,0.00,0,Wunderground v.1.15,2013-10-10 09:14:00,
2013-10-10 03:19:00,26.9,23.5,29.78,NW,309,0.0,0.0,87,0.00,,,0.00,0,Wunderground v.1.15,2013-10-10 09:19:00,
2013-10-10 03:24:00,26.8,23.4,29.78,NW,309,0.0,0.0,87,0.00,,,0.00,0,Wunderground v.1.15,2013-10-10 09:24:00,
2013-10-10 03:29:00,26.7,23.4,29.78,NW,309,0.0,0.0,87,0.00,,,0.00,0,Wunderground v.1.15,2013-10-10 09:29:00,
2013-10-10 03:34:00,26.5,23.2,29.78,NW,309,0.0,0.0,87,0.00,,,0.00,0,Wunderground v.1.15,2013-10-10 09:34:00,
2013-10-10 03:39:00,26.4,23.1,29.78,NW,309,0.0,0.0,87,0.00,,,0.00,0,Wunderground v.1.15,2013-10-10 09:39:00,
2013-10-10 03:44:00,26.3,23.0,29.78,NW,309,0.0,0.0,87,0.00,,,0.00,0,Wunderground v.1.15,2013-10-10 09:44:00,
2013-10-10 03:49:00,26.3,23.0,29.77,NW,308,0.0,0.0,87,0.00,,,0.00,0,Wunderground v.1.15,2013-10-10 09:49:00,
2013-10-10 03:54:00,26.3,23.0,29.77,NW,309,0.0,0.0,87,0.00,,,0.00,0,Wunderground v.1.15,2013-10-10 09:54:00,
2013-10-10 03:59:00,26.2,22.9,29.77,NW,309,0.0,0.0,87,0.00,,,0.00,0,Wunderground v.1.15,2013-10-10 09:59:00,
2013-10-10 04:04:00,25.8,22.5,29.77,NW,309,0.0,0.0,87,0.00,,,0.00,0,Wunderground v.1.15,2013-10-10 10:04:00,
2013-10-10 04:09:00,25.6,22.3,29.77,NW,309,0.0,0.0,87,0.00,,,0.00,0,Wunderground v.1.15,2013-10-10 10:09:00,
2013-10-10 04:14:00,25.5,22.2,29.77,NW,309,0.0,0.0,87,0.00,,,0.00,0,Wunderground v.1.15,2013-10-10 10:14:00,
2013-10-10 04:19:00,25.4,22.1,29.77,NW,309,0.0,1.0,87,0.00,,,0.00,0,Wunderground v.1.15,2013-10-10 10:19:00,
2013-10-10 04:24:00,25.3,22.0,29.77,NW,309,0.0,2.0,87,0.00,,,0.00,0,Wunderground v.1.15,2013-10-10 10:24:00,
2013-10-10 04:29:00,25.3,22.0,29.77,NW,309,0.0,2.0,87,0.00,,,0.00,0,Wunderground v.1.15,2013-10-10 10:29:00,
2013-10-10 04:34:00,25.3,22.0,29.77,NW,309,0.0,2.0,87,0.00,,,0.00,0,Wunderground v.1.15,2013-10-10 10:34:00,
2013-10-10 04:39:00,25.3,22.0,29.77,NW,309,0.0,2.0,87,0.00,,,0.00,0,Wunderground v.1.15,2013-10-10 10:39:00,
2013-10-10 04:44:00,25.4,22.1,29.77,NW,309,0.0,0.0,87,0.00,,,0.00,0,Wunderground v.1.15,2013-10-10 10:44:00,
2013-10-10 04:49:00,25.3,22.0,29.76,NW,309,0.0,0.0,87,0.00,,,0.00,0,Wunderground v.1.15,2013-10-10 10:49:00,
2013-10-10 04:54:00,25.2,22.1,29.76,NW,309,0.0,0.0,88,0.00,,,0.00,0,Wunderground v.1.15,2013-10-10 10:54:00,
2013-10-10 05:00:00,24.9,21.8,29.76,NW,309,1.0,3.0,88,0.00,,,0.00,0,Wunderground v.1.15,2013-10-10 11:00:00,
2013-10-10 05:04:00,24.8,21.8,29.77,NW,309,0.0,2.0,88,0.00,,,0.00,0,Wunderground v.1.15,2013-10-10 11:04:00,
2013-10-10 05:10:00,24.8,21.8,29.77,NW,309,0.0,2.0,88,0.00,,,0.00,0,Wunderground v.1.15,2013-10-10 11:10:00,
2013-10-10 05:14:00,24.6,21.6,29.77,NW,309,0.0,0.0,88,0.00,,,0.00,0,Wunderground v.1.15,2013-10-10 11:14:00,
2013-10-10 05:19:00,24.5,21.5,29.77,NW,309,0.0,0.0,88,0.00,,,0.00,0,Wunderground v.1.15,2013-10-10 11:19:00,
2013-10-10 05:24:00,24.6,21.8,29.77,NW,309,0.0,2.0,89,0.00,,,0.00,0,Wunderground v.1.15,2013-10-10 11:24:00,
2013-10-10 05:29:00,24.8,22.0,29.77,NW,309,0.0,2.0,89,0.00,,,0.00,0,Wunderground v.1.15,2013-10-10 11:29:00,
2013-10-10 05:34:00,25.0,22.2,29.77,NW,309,0.0,2.0,89,0.00,,,0.00,0,Wunderground v.1.15,2013-10-10 11:34:00,
2013-10-10 05:39:00,24.9,22.1,29.77,NW,309,0.0,2.0,89,0.00,,,0.00,0,Wunderground v.1.15,2013-10-10 11:39:00,
2013-10-10 05:44:00,24.9,22.1,29.77,NW,309,2.0,2.0,89,0.00,,,0.00,0,Wunderground v.1.15,2013-10-10 11:44:00,
2013-10-10 05:49:00,24.7,21.9,29.77,NW,309,1.0,2.0,89,0.00,,,0.00,0,Wunderground v.1.15,2013-10-10 11:49:00,
2013-10-10 05:54:00,24.5,21.7,29.77,NW,307,0.0,2.0,89,0.00,,,0.00,0,Wunderground v.1.15,2013-10-10 11:54:00,
2013-10-10 05:59:00,24.4,21.6,29.77,NW,309,0.0,2.0,89,0.00,,,0.00,0,Wunderground v.1.15,2013-10-10 11:59:00,
2013-10-10 06:04:00,24.3,21.5,29.77,NW,309,0.0,0.0,89,0.00,,,0.00,0,Wunderground v.1.15,2013-10-10 12:04:00,
2013-10-10 06:09:00,24.3,21.5,29.77,NW,309,0.0,0.0,89,0.00,,,0.00,0,Wunderground v.1.15,2013-10-10 12:09:00,
2013-10-10 06:14:00,24.2,21.4,29.77,NW,309,0.0,0.0,89,0.00,,,0.00,0,Wunderground v.1.15,2013-10-10 12:14:00,
2013-10-10 06:19:00,24.2,21.4,29.77,NW,309,0.0,0.0,89,0.00,,,0.00,0,Wunderground v.1.15,2013-10-10 12:19:00,
2013-10-10 06:24:00,24.2,21.4,29.77,NW,309,0.0,0.0,89,0.00,,,0.00,0,Wunderground v.1.15,2013-10-10 12:24:00,
2013-10-10 06:29:00,24.2,21.4,29.77,NW,309,0.0,0.0,89,0.00,,,0.00,0,Wunderground v.1.15,2013-10-10 12:29:00,
2013-10-10 06:34:00,24.2,21.4,29.77,NW,309,0.0,0.0,89,0.00,,,0.00,0,Wunderground v.1.15,2013-10-10 12:34:00,
2013-10-10 06:40:00,24.1,21.3,29.77,NW,309,0.0,0.0,89,0.00,,,0.00,0,Wunderground v.1.15,2013-10-10 12:40:00,
2013-10-10 06:45:00,23.7,20.9,29.77,NW,309,0.0,2.0,89,0.00,,,0.00,0,Wunderground v.1.15,2013-10-10 12:45:00,
2013-10-10 06:50:00,23.3,20.5,29.77,NW,309,0.0,2.0,89,0.00,,,0.00,0,Wunderground v.1.15,2013-10-10 12:50:00,
2013-10-10 06:55:00,23.2,20.4,29.77,NW,309,0.0,0.0,89,0.00,,,0.00,0,Wunderground v.1.15,2013-10-10 12:55:00,
2013-10-10 07:00:00,23.2,20.4,29.77,NW,309,0.0,0.0,89,0.00,,,0.00,0,Wunderground v.1.15,2013-10-10 13:00:00,
2013-10-10 07:05:00,23.3,20.5,29.77,NW,309,0.0,0.0,89,0.00,,,0.00,0,Wunderground v.1.15,2013-10-10 13:05:00,
2013-10-10 07:10:00,23.4,20.6,29.77,NW,309,1.0,1.0,89,0.00,,,0.00,0,Wunderground v.1.15,2013-10-10 13:10:00,
2013-10-10 07:15:00,23.6,20.8,29.77,NW,309,0.0,1.0,89,0.00,,,0.00,0,Wunderground v.1.15,2013-10-10 13:15:00,
2013-10-10 07:20:00,23.5,20.7,29.77,NW,309,0.0,0.0,89,0.00,,,0.00,0,Wunderground v.1.15,2013-10-10 13:20:00,
2013-10-10 07:25:00,23.5,20.7,29.77,NW,309,0.0,0.0,89,0.00,,,0.00,0,Wunderground v.1.15,2013-10-10 13:25:00,
2013-10-10 07:30:00,23.5,20.7,29.77,NW,309,0.0,0.0,89,0.00,,,0.00,0,Wunderground v.1.15,2013-10-10 13:30:00,
2013-10-10 07:35:00,23.5,20.7,29.78,NW,309,0.0,1.0,89,0.00,,,0.00,0,Wunderground v.1.15,2013-10-10 13:35:00,
2013-10-10 07:40:00,23.4,20.6,29.78,NW,309,0.0,0.0,89,0.00,,,0.00,0,Wunderground v.1.15,2013-10-10 13:40:00,
2013-10-10 07:45:00,23.4,20.6,29.78,NW,309,0.0,0.0,89,0.00,,,0.00,9,Wunderground v.1.15,2013-10-10 13:45:00,
2013-10-10 07:50:00,23.5,20.7,29.78,NW,309,0.0,0.0,89,0.00,,,0.00,12,Wunderground v.1.15,2013-10-10 13:50:00,
2013-10-10 07:55:00,23.4,20.6,29.78,NW,309,0.0,0.0,89,0.00,,,0.00,18,Wunderground v.1.15,2013-10-10 13:55:00,
2013-10-10 08:00:00,23.4,20.6,29.78,NW,309,0.0,0.0,89,0.00,,,0.00,23,Wunderground v.1.15,2013-10-10 14:00:00,
2013-10-10 08:05:00,23.6,20.8,29.78,NW,309,0.0,0.0,89,0.00,,,0.00,28,Wunderground v.1.15,2013-10-10 14:05:00,
2013-10-10 08:10:00,24.2,21.7,29.78,NW,309,0.0,0.0,90,0.00,,,0.00,42,Wunderground v.1.15,2013-10-10 14:10:00,
2013-10-10 08:15:00,24.9,22.4,29.78,NW,309,0.0,0.0,90,0.00,,,0.00,53,Wunderground v.1.15,2013-10-10 14:15:00,
2013-10-10 08:20:00,25.4,22.9,29.78,NW,309,0.0,0.0,90,0.00,,,0.00,67,Wunderground v.1.15,2013-10-10 14:20:00,
2013-10-10 08:25:00,26.2,23.7,29.78,NW,309,0.0,0.0,90,0.00,,,0.00,81,Wunderground v.1.15,2013-10-10 14:25:00,
2013-10-10 08:30:00,26.9,24.4,29.78,NW,309,0.0,0.0,90,0.00,,,0.00,93,Wunderground v.1.15,2013-10-10 14:30:00,
2013-10-10 08:35:00,27.1,24.3,29.79,NW,309,0.0,0.0,89,0.00,,,0.00,104,Wunderground v.1.15,2013-10-10 14:35:00,
2013-10-10 08:40:00,27.8,25.0,29.79,NW,309,0.0,1.0,89,0.00,,,0.00,123,Wunderground v.1.15,2013-10-10 14:40:00,
2013-10-10 08:45:00,28.1,25.0,29.79,NW,309,1.0,3.0,88,0.00,,,0.00,156,Wunderground v.1.15,2013-10-10 14:45:00,
2013-10-10 08:50:00,28.4,25.3,29.79,NW,309,0.0,1.0,88,0.00,,,0.00,178,Wunderground v.1.15,2013-10-10 14:50:00,
2013-10-10 08:55:00,29.0,25.9,29.79,NW,309,0.0,1.0,88,0.00,,,0.00,179,Wunderground v.1.15,2013-10-10 14:55:00,
2013-10-10 09:00:00,29.9,26.8,29.79,NW,309,0.0,0.0,88,0.00,,,0.00,181,Wunderground v.1.15,2013-10-10 15:00:00,
2013-10-10 09:05:00,31.0,27.9,29.79,NW,309,0.0,0.0,88,0.00,,,0.00,202,Wunderground v.1.15,2013-10-10 15:05:00,
2013-10-10 09:10:00,31.9,28.5,29.79,NW,309,0.0,0.0,87,0.00,,,0.00,220,Wunderground v.1.15,2013-10-10 15:10:00,
2013-10-10 09:15:00,32.2,28.5,29.79,NW,309,0.0,1.0,86,0.00,,,0.00,236,Wunderground v.1.15,2013-10-10 15:15:00,
2013-10-10 09:20:00,32.8,29.1,29.78,NW,309,0.0,0.0,86,0.00,,,0.00,253,Wunderground v.1.15,2013-10-10 15:20:00,
2013-10-10 09:25:00,33.4,29.4,29.78,NW,308,0.0,3.0,85,0.00,,,0.00,279,Wunderground v.1.15,2013-10-10 15:25:00,
2013-10-10 09:30:00,33.7,29.7,29.78,NW,309,0.0,1.0,85,0.00,,,0.00,283,Wunderground v.1.15,2013-10-10 15:30:00,
2013-10-10 12:56:00,48.4,33.9,29.76,North,350,12.0,12.0,57,0.00,,,0.00,473,Wunderground v.1.15,2013-10-10 18:56:00,
2013-10-10 13:01:00,48.3,32.9,29.75,NNW,331,11.0,15.0,55,0.00,,,0.00,438,Wunderground v.1.15,2013-10-10 19:01:00,
2013-10-10 13:06:00,48.5,33.1,29.75,NNE,28,6.0,15.0,55,0.00,,,0.00,434,Wunderground v.1.15,2013-10-10 19:06:00,
2013-10-10 13:11:00,48.6,32.2,29.75,NW,313,6.0,13.0,53,0.00,,,0.00,424,Wunderground v.1.15,2013-10-10 19:11:00,
2013-10-10 13:16:00,48.8,31.5,29.75,NNE,13,5.0,15.0,51,0.00,,,0.00,429,Wunderground v.1.15,2013-10-10 19:16:00,
2013-10-10 13:21:00,49.3,31.9,29.75,NNE,19,12.0,12.0,51,0.00,,,0.00,415,Wunderground v.1.15,2013-10-10 19:21:00,
2013-10-10 13:26:00,49.4,31.5,29.75,NNE,32,5.0,16.0,50,0.00,,,0.00,408,Wunderground v.1.15,2013-10-10 19:26:00,
2013-10-10 13:31:00,49.4,31.0,29.74,North,355,2.0,15.0,49,0.00,,,0.00,418,Wunderground v.1.15,2013-10-10 19:31:00,
2013-10-10 13:36:00,49.7,31.8,29.74,North,360,4.0,15.0,50,0.00,,,0.00,408,Wunderground v.1.15,2013-10-10 19:36:00,
2013-10-10 13:41:00,50.0,32.6,29.74,NNW,342,6.0,11.0,51,0.00,,,0.00,420,Wunderground v.1.15,2013-10-10 19:41:00,
2013-10-10 13:46:00,50.0,32.6,29.74,NNE,18,4.0,11.0,51,0.00,,,0.00,318,Wunderground v.1.15,2013-10-10 19:46:00,
2013-10-10 13:51:00,49.9,32.0,29.74,NE,53,7.0,9.0,50,0.00,,,0.00,403,Wunderground v.1.15,2013-10-10 19:51:00,
2013-10-10 13:57:00,50.4,31.9,29.74,NE,46,9.0,12.0,49,0.00,,,0.00,396,Wunderground v.1.15,2013-10-10 19:57:00,
2013-10-10 14:02:00,50.8,29.6,29.73,North,355,4.0,5.0,44,0.00,,,0.00,406,Wunderground v.1.15,2013-10-10 20:02:00,
2013-10-10 14:07:00,51.4,28.5,29.73,NNE,32,6.0,14.0,41,0.00,,,0.00,457,Wunderground v.1.15,2013-10-10 20:07:00,
2013-10-10 14:12:00,51.7,27.5,29.73,North,10,4.0,16.0,39,0.00,,,0.00,499,Wunderground v.1.15,2013-10-10 20:12:00,
2013-10-10 14:17:00,52.3,24.0,29.73,NNW,340,8.0,16.0,33,0.00,,,0.00,434,Wunderground v.1.15,2013-10-10 20:17:00,
2013-10-10 14:22:00,52.3,24.7,29.73,North,360,6.0,14.0,34,0.00,,,0.00,397,Wunderground v.1.15,2013-10-10 20:22:00,
2013-10-10 14:27:00,52.0,25.8,29.73,NNW,340,6.0,14.0,36,0.00,,,0.00,404,Wunderground v.1.15,2013-10-10 20:27:00,
2013-10-10 14:32:00,51.9,25.8,29.73,NNE,15,9.0,15.0,36,0.00,,,0.00,427,Wunderground v.1.15,2013-10-10 20:32:00,
2013-10-10 14:37:00,52.3,29.3,29.73,NNE,17,3.0,15.0,41,0.00,,,0.00,445,Wunderground v.1.15,2013-10-10 20:37:00,
2013-10-10 14:42:00,52.4,28.1,29.73,NW,321,6.0,16.0,39,0.00,,,0.00,432,Wunderground v.1.15,2013-10-10 20:42:00,
2013-10-10 14:47:00,52.4,28.1,29.73,NNW,347,4.0,17.0,39,0.00,,,0.00,471,Wunderground v.1.15,2013-10-10 20:47:00,
2013-10-10 14:52:00,52.7,28.4,29.73,North,355,3.0,14.0,39,0.00,,,0.00,424,Wunderground v.1.15,2013-10-10 20:52:00,
2013-10-10 14:57:00,53.2,28.9,29.73,NNW,344,3.0,14.0,39,0.00,,,0.00,436,Wunderground v.1.15,2013-10-10 20:57:00,
2013-10-10 15:02:00,53.5,27.2,29.73,NNW,327,10.0,15.0,36,0.00,,,0.00,515,Wunderground v.1.15,2013-10-10 21:02:00,
2013-10-10 15:07:00,53.3,27.7,29.73,WNW,295,14.0,17.0,37,0.00,,,0.00,490,Wunderground v.1.15,2013-10-10 21:07:00,
2013-10-10 15:12:00,52.8,27.9,29.73,NW,319,14.0,17.0,38,0.00,,,0.00,424,Wunderground v.1.15,2013-10-10 21:12:00,
2013-10-10 15:17:00,52.5,28.2,29.73,NW,318,11.0,18.0,39,0.00,,,0.00,352,Wunderground v.1.15,2013-10-10 21:17:00,
2013-10-10 15:22:00,52.1,28.5,29.73,NW,321,5.0,14.0,40,0.00,,,0.00,306,Wunderground v.1.15,2013-10-10 21:22:00,
2013-10-10 15:27:00,51.6,27.4,29.73,NW,319,17.0,21.0,39,0.00,,,0.00,301,Wunderground v.1.15,2013-10-10 21:27:00,
2013-10-10 15:32:00,51.2,28.3,29.73,NW,325,10.0,16.0,41,0.00,,,0.00,278,Wunderground v.1.15,2013-10-10 21:32:00,
2013-10-10 15:37:00,51.2,28.3,29.73,WNW,294,14.0,20.0,41,0.00,,,0.00,279,Wunderground v.1.15,2013-10-10 21:37:00,
2013-10-10 15:42:00,50.6,28.3,29.73,NNW,335,8.0,18.0,42,0.00,,,0.00,274,Wunderground v.1.15,2013-10-10 21:42:00,
2013-10-10 15:47:00,50.3,29.2,29.73,NW,326,6.0,18.0,44,0.00,,,0.00,265,Wunderground v.1.15,2013-10-10 21:47:00,
2013-10-10 15:53:00,50.1,29.6,29.73,NNW,333,14.0,18.0,45,0.00,,,0.00,274,Wunderground v.1.15,2013-10-10 21:53:00,
2013-10-10 15:58:00,50.0,30.0,29.73,NW,309,8.0,18.0,46,0.00,,,0.00,269,Wunderground v.1.15,2013-10-10 21:58:00,
2013-10-10 16:03:00,49.8,29.8,29.73,NW,326,8.0,19.0,46,0.00,,,0.00,253,Wunderground v.1.15,2013-10-10 22:03:00,
2013-10-10 16:08:00,49.4,29.5,29.73,NNW,348,10.0,24.0,46,0.00,,,0.00,250,Wunderground v.1.15,2013-10-10 22:08:00,
2013-10-10 16:13:00,49.1,29.2,29.73,NW,319,9.0,18.0,46,0.00,,,0.00,211,Wunderground v.1.15,2013-10-10 22:13:00,
2013-10-10 16:18:00,48.7,28.8,29.74,NW,321,6.0,23.0,46,0.00,,,0.00,193,Wunderground v.1.15,2013-10-10 22:18:00,
2013-10-10 16:23:00,48.3,29.0,29.74,North,350,15.0,20.0,47,0.00,,,0.00,178,Wunderground v.1.15,2013-10-10 22:23:00,
2013-10-10 16:28:00,47.9,29.1,29.74,NW,304,7.0,23.0,48,0.00,,,0.00,169,Wunderground v.1.15,2013-10-10 22:28:00,
2013-10-10 16:33:00,47.6,29.4,29.74,NW,315,9.0,21.0,49,0.00,,,0.00,160,Wunderground v.1.15,2013-10-10 22:33:00,
2013-10-10 16:38:00,47.4,29.7,29.74,NNW,333,9.0,24.0,50,0.00,,,0.00,153,Wunderground v.1.15,2013-10-10 22:38:00,
2013-10-10 16:43:00,47.2,29.5,29.74,NW,319,12.0,19.0,50,0.00,,,0.00,141,Wunderground v.1.15,2013-10-10 22:43:00,
2013-10-10 16:48:00,47.0,29.8,29.75,NNW,341,11.0,19.0,51,0.00,,,0.00,127,Wunderground v.1.15,2013-10-10 22:48:00,
2013-10-10 16:53:00,47.0,29.8,29.75,NW,315,6.0,20.0,51,0.00,,,0.00,113,Wunderground v.1.15,2013-10-10 22:53:00,
2013-10-10 16:58:00,47.0,30.3,29.75,NW,321,14.0,20.0,52,0.00,,,0.00,98,Wunderground v.1.15,2013-10-10 22:58:00,
2013-10-10 17:03:00,46.9,30.2,29.75,North,351,5.0,14.0,52,0.00,,,0.00,86,Wunderground v.1.15,2013-10-10 23:03:00,
2013-10-10 17:09:00,46.9,30.6,29.75,NW,313,14.0,14.0,53,0.00,,,0.00,72,Wunderground v.1.15,2013-10-10 23:09:00,
2013-10-10 17:14:00,46.8,30.6,29.75,NW,304,11.0,18.0,53,0.00,,,0.00,67,Wunderground v.1.15,2013-10-10 23:14:00,
2013-10-10 17:19:00,46.7,30.5,29.75,NW,326,8.0,18.0,53,0.00,,,0.00,74,Wunderground v.1.15,2013-10-10 23:19:00,
2013-10-10 17:24:00,46.5,30.3,29.75,NNW,338,11.0,14.0,53,0.00,,,0.00,79,Wunderground v.1.15,2013-10-10 23:24:00,
2013-10-10 17:30:00,46.4,30.6,29.75,NNW,331,9.0,10.0,54,0.00,,,0.00,83,Wunderground v.1.15,2013-10-10 23:30:00,
2013-10-10 17:35:00,46.4,30.6,29.75,NNW,327,14.0,23.0,54,0.00,,,0.00,83,Wunderground v.1.15,2013-10-10 23:35:00,
2013-10-10 17:40:00,46.4,30.6,29.75,NNW,331,16.0,19.0,54,0.00,,,0.00,83,Wunderground v.1.15,2013-10-10 23:40:00,
2013-10-10 17:45:00,46.4,30.6,29.75,WNW,292,17.0,22.0,54,0.00,,,0.00,77,Wunderground v.1.15,2013-10-10 23:45:00,
2013-10-10 17:50:00,46.4,30.6,29.76,NW,322,14.0,14.0,54,0.00,,,0.00,74,Wunderground v.1.15,2013-10-10 23:50:00,
2013-10-10 17:55:00,46.3,30.5,29.76,NW,309,10.0,19.0,54,0.00,,,0.00,69,Wunderground v.1.15,2013-10-10 23:55:00,
2013-10-10 18:00:00,46.2,30.5,29.76,NNW,329,10.0,14.0,54,0.00,,,0.00,63,Wunderground v.1.15,2013-10-11 00:00:00,
2013-10-10 18:05:00,46.2,30.5,29.77,WNW,290,12.0,17.0,54,0.00,,,0.00,56,Wunderground v.1.15,2013-10-11 00:05:00,
2013-10-10 18:10:00,46.1,30.8,29.77,WNW,302,11.0,14.0,55,0.00,,,0.00,47,Wunderground v.1.15,2013-10-11 00:10:00,
2013-10-10 18:15:00,46.0,30.7,29.77,WNW,292,4.0,15.0,55,0.00,,,0.00,39,Wunderground v.1.15,2013-10-11 00:15:00,
2013-10-10 18:20:00,45.8,31.0,29.78,NNW,330,10.0,12.0,56,0.00,,,0.00,32,Wunderground v.1.15,2013-10-11 00:20:00,
2013-10-10 18:25:00,45.5,30.7,29.78,NNW,333,9.0,16.0,56,0.00,,,0.00,25,Wunderground v.1.15,2013-10-11 00:25:00,
2013-10-10 18:30:00,45.4,31.0,29.78,WNW,298,10.0,10.0,57,0.00,,,0.00,19,Wunderground v.1.15,2013-10-11 00:30:00,
2013-10-10 18:35:00,45.4,31.0,29.78,NW,313,15.0,16.0,57,0.00,,,0.00,19,Wunderground v.1.15,2013-10-11 00:35:00,
2013-10-10 18:40:00,45.3,31.0,29.78,WNW,296,12.0,15.0,57,0.00,,,0.00,19,Wunderground v.1.15,2013-10-11 00:40:00,
2013-10-10 18:45:00,45.2,30.9,29.78,NNW,338,5.0,15.0,57,0.00,,,0.00,19,Wunderground v.1.15,2013-10-11 00:45:00,
2013-10-10 18:50:00,45.1,30.8,29.78,NNW,327,9.0,11.0,57,0.00,,,0.00,12,Wunderground v.1.15,2013-10-11 00:50:00,
2013-10-10 18:55:00,45.0,31.1,29.78,NW,313,3.0,15.0,58,0.00,,,0.00,7,Wunderground v.1.15,2013-10-11 00:55:00,
2013-10-10 19:00:00,44.9,31.0,29.78,NNW,337,5.0,10.0,58,0.00,,,0.00,0,Wunderground v.1.15,2013-10-11 01:00:00,
2013-10-10 19:05:00,44.7,31.2,29.80,NW,319,9.0,12.0,59,0.00,,,0.00,0,Wunderground v.1.15,2013-10-11 01:05:00,
2013-10-10 19:10:00,44.6,31.1,29.80,NNW,340,6.0,11.0,59,0.00,,,0.00,0,Wunderground v.1.15,2013-10-11 01:10:00,
2013-10-10 19:15:00,44.4,31.4,29.80,NNW,348,4.0,13.0,60,0.00,,,0.00,0,Wunderground v.1.15,2013-10-11 01:15:00,
2013-10-10 19:20:00,44.2,31.2,29.80,NW,319,4.0,9.0,60,0.00,,,0.00,0,Wunderground v.1.15,2013-10-11 01:20:00,
2013-10-10 19:25:00,44.1,31.1,29.80,NNW,334,5.0,10.0,60,0.00,,,0.00,0,Wunderground v.1.15,2013-10-11 01:25:00,
2013-10-10 19:30:00,44.1,31.5,29.80,North,349,8.0,8.0,61,0.00,,,0.00,0,Wunderground v.1.15,2013-10-11 01:30:00,
2013-10-10 19:35:00,44.1,31.5,29.81,NNW,344,4.0,13.0,61,0.00,,,0.00,0,Wunderground v.1.15,2013-10-11 01:35:00,
2013-10-10 19:40:00,43.9,31.3,29.81,NNW,346,8.0,8.0,61,0.00,,,0.00,0,Wunderground v.1.15,2013-10-11 01:40:00,
2013-10-10 19:45:00,43.8,31.6,29.81,North,355,4.0,12.0,62,0.00,,,0.00,0,Wunderground v.1.15,2013-10-11 01:45:00,
2013-10-10 19:50:00,43.7,31.5,29.81,NNW,344,3.0,5.0,62,0.00,,,0.00,0,Wunderground v.1.15,2013-10-11 01:50:00,
2013-10-10 19:55:00,43.6,31.4,29.81,North,350,6.0,6.0,62,0.00,,,0.00,0,Wunderground v.1.15,2013-10-11 01:55:00,
2013-10-10 20:00:00,43.5,31.7,29.81,NNW,337,5.0,8.0,63,0.00,,,0.00,0,Wunderground v.1.15,2013-10-11 02:00:00,
2013-10-10 20:05:00,43.5,31.7,29.81,NNW,346,6.0,8.0,63,0.00,,,0.00,0,Wunderground v.1.15,2013-10-11 02:05:00,
2013-10-10 20:10:00,43.4,31.6,29.81,NNW,338,5.0,6.0,63,0.00,,,0.00,0,Wunderground v.1.15,2013-10-11 02:10:00,
2013-10-10 20:15:00,43.4,31.6,29.81,NNW,342,5.0,8.0,63,0.00,,,0.00,0,Wunderground v.1.15,2013-10-11 02:15:00,
2013-10-10 20:20:00,43.5,31.7,29.82,NNW,327,2.0,6.0,63,0.00,,,0.00,0,Wunderground v.1.15,2013-10-11 02:20:00,
2013-10-10 20:25:00,43.6,31.8,29.82,NNW,337,5.0,11.0,63,0.00,,,0.00,0,Wunderground v.1.15,2013-10-11 02:25:00,
2013-10-10 20:30:00,43.5,32.1,29.82,NNW,329,5.0,8.0,64,0.00,,,0.00,0,Wunderground v.1.15,2013-10-11 02:30:00,
2013-10-10 20:35:00,43.4,32.0,29.82,NNW,348,6.0,11.0,64,0.00,,,0.00,0,Wunderground v.1.15,2013-10-11 02:35:00,
2013-10-10 20:40:00,43.4,32.0,29.82,NNW,345,2.0,10.0,64,0.00,,,0.00,0,Wunderground v.1.15,2013-10-11 02:40:00,
2013-10-10 20:45:00,43.4,32.4,29.82,NNW,339,9.0,11.0,65,0.00,,,0.00,0,Wunderground v.1.15,2013-10-11 02:45:00,
2013-10-10 20:50:00,43.4,32.4,29.82,NNW,338,5.0,5.0,65,0.00,,,0.00,0,Wunderground v.1.15,2013-10-11 02:50:00,
2013-10-10 20:55:00,43.3,32.3,29.82,NNW,341,4.0,9.0,65,0.00,,,0.00,0,Wunderground v.1.15,2013-10-11 02:55:00,
2013-10-10 21:00:00,43.3,32.3,29.83,NNW,338,6.0,10.0,65,0.00,,,0.00,0,Wunderground v.1.15,2013-10-11 03:00:00,
2013-10-10 21:05:00,43.4,32.4,29.83,NNW,343,6.0,15.0,65,0.00,,,0.00,0,Wunderground v.1.15,2013-10-11 03:05:00,
2013-10-10 21:10:00,43.5,32.5,29.83,NW,309,10.0,16.0,65,0.00,,,0.00,0,Wunderground v.1.15,2013-10-11 03:10:00,
2013-10-10 21:15:00,43.6,32.6,29.83,NW,317,9.0,16.0,65,0.00,,,0.00,0,Wunderground v.1.15,2013-10-11 03:15:00,
2013-10-10 21:21:00,43.5,32.5,29.83,NW,326,8.0,13.0,65,0.00,,,0.00,0,Wunderground v.1.15,2013-10-11 03:21:00,
2013-10-10 21:25:00,43.4,32.4,29.83,NW,321,9.0,17.0,65,0.00,,,0.00,0,Wunderground v.1.15,2013-10-11 03:25:00,
2013-10-10 21:30:00,43.4,32.4,29.83,NNW,336,12.0,12.0,65,0.00,,,0.00,0,Wunderground v.1.15,2013-10-11 03:30:00,
2013-10-10 21:36:00,43.2,32.6,29.83,NNW,328,9.0,12.0,66,0.00,,,0.00,0,Wunderground v.1.15,2013-10-11 03:36:00,
2013-10-10 21:41:00,43.1,32.5,29.83,North,355,6.0,10.0,66,0.00,,,0.00,0,Wunderground v.1.15,2013-10-11 03:41:00,
2013-10-10 21:45:00,43.0,32.4,29.84,North,360,5.0,11.0,66,0.00,,,0.00,0,Wunderground v.1.15,2013-10-11 03:45:00,
2013-10-10 21:50:00,42.9,32.3,29.84,North,5,6.0,13.0,66,0.00,,,0.00,0,Wunderground v.1.15,2013-10-11 03:50:00,
2013-10-10 21:55:00,42.9,32.3,29.84,North,355,11.0,13.0,66,0.00,,,0.00,0,Wunderground v.1.15,2013-10-11 03:55:00,
2013-10-10 22:00:00,42.8,32.6,29.84,NNW,342,9.0,9.0,67,0.00,,,0.00,0,Wunderground v.1.15,2013-10-11 04:00:00,
2013-10-10 22:01:00,42.9,32.7,29.84,NNW,333,9.0,9.0,67,0.00,,,0.00,0,Wunderground v.1.15,2013-10-11 04:01:00,
2013-10-10 22:03:00,42.8,32.6,29.84,NNW,335,9.0,12.0,67,0.00,,,0.00,0,Wunderground v.1.15,2013-10-11 04:03:00,
2013-10-10 22:08:00,42.9,32.3,29.84,North,355,5.0,15.0,66,0.00,,,0.00,0,Wunderground v.1.15,2013-10-11 04:08:00,
2013-10-10 22:13:00,42.8,32.6,29.84,NNW,337,4.0,10.0,67,0.00,,,0.00,0,Wunderground v.1.15,2013-10-11 04:13:00,
2013-10-10 22:18:00,42.8,32.2,29.85,NW,323,10.0,13.0,66,0.00,,,0.00,0,Wunderground v.1.15,2013-10-11 04:18:00,
2013-10-10 22:23:00,42.8,32.2,29.85,NNW,341,6.0,12.0,66,0.00,,,0.00,0,Wunderground v.1.15,2013-10-11 04:23:00,
2013-10-10 22:28:00,42.8,32.6,29.85,NNW,334,6.0,13.0,67,0.00,,,0.00,0,Wunderground v.1.15,2013-10-11 04:28:00,
2013-10-10 22:33:00,42.8,32.2,29.85,NNW,339,8.0,16.0,66,0.00,,,0.00,0,Wunderground v.1.15,2013-10-11 04:33:00,
2013-10-10 22:38:00,42.7,32.1,29.85,NW,321,9.0,16.0,66,0.00,,,0.00,0,Wunderground v.1.15,2013-10-11 04:38:00,
2013-10-10 22:43:00,42.7,32.5,29.85,NNW,346,5.0,13.0,67,0.00,,,0.00,0,Wunderground v.1.15,2013-10-11 04:43:00,
2013-10-10 22:48:00,42.7,32.5,29.85,NNW,329,8.0,13.0,67,0.00,,,0.00,0,Wunderground v.1.15,2013-10-11 04:48:00,
2013-10-10 22:53:00,42.6,32.4,29.85,North,355,3.0,13.0,67,0.00,,,0.00,0,Wunderground v.1.15,2013-10-11 04:53:00,
2013-10-10 22:58:00,42.6,32.4,29.85,NNW,344,12.0,15.0,67,0.00,,,0.00,0,Wunderground v.1.15,2013-10-11 04:58:00,
2013-10-10 23:03:00,42.6,32.4,29.85,NNW,333,6.0,10.0,67,0.00,,,0.00,0,Wunderground v.1.15,2013-10-11 05:03:00,
2013-10-10 23:08:00,42.5,32.3,29.85,NNW,346,5.0,10.0,67,0.00,,,0.00,0,Wunderground v.1.15,2013-10-11 05:08:00,
2013-10-10 23:13:00,42.5,32.3,29.85,NNW,342,4.0,8.0,67,0.00,,,0.00,0,Wunderground v.1.15,2013-10-11 05:13:00,
2013-10-10 23:18:00,42.5,32.3,29.85,North,355,3.0,9.0,67,0.00,,,0.00,0,Wunderground v.1.15,2013-10-11 05:18:00,
2013-10-10 23:23:00,42.4,32.6,29.85,NNW,345,5.0,10.0,68,0.00,,,0.00,0,Wunderground v.1.15,2013-10-11 05:23:00,
2013-10-10 23:28:00,42.3,32.5,29.85,NNW,332,4.0,10.0,68,0.00,,,0.00,0,Wunderground v.1.15,2013-10-11 05:28:00,
2013-10-10 23:33:00,42.3,32.5,29.85,NNW,340,1.0,10.0,68,0.00,,,0.00,0,Wunderground v.1.15,2013-10-11 05:33:00,
2013-10-10 23:38:00,42.2,32.4,29.85,NNW,338,5.0,10.0,68,0.00,,,0.00,0,Wunderground v.1.15,2013-10-11 05:38:00,
2013-10-10 23:43:00,42.2,32.4,29.85,NNW,344,5.0,10.0,68,0.00,,,0.00,0,Wunderground v.1.15,2013-10-11 05:43:00,
2013-10-10 23:48:00,42.1,32.3,29.85,NNW,337,8.0,10.0,68,0.00,,,0.00,0,Wunderground v.1.15,2013-10-11 05:48:00,
2013-10-10 23:53:00,42.0,32.2,29.85,NW,326,4.0,9.0,68,0.00,,,0.00,0,Wunderground v.1.15,2013-10-11 05:53:00,
2013-10-10 23:58:00,41.9,32.1,29.85,NW,322,1.0,9.0,68,0.00,,,0.00,0,Wunderground v.1.15,2013-10-11 05:58:00,